period_start,C,m1,H,J0,J1,J2,J3,J4,J5,JA,JB,JC,JD,JJ,JK,JN,#
2013-10-13 00:00:28,0.02,1.25,0.00,26.92,28.57,31.03,5.97,29.50,1011.23,2041.41,3013.11,2969.83,3234.00,350.95,318.90,16.42,0000 0000 0000 0000 000000
2013-10-13 00:01:29,0.00,1.25,0.00,26.93,28.57,31.05,5.78,29.42,1011.23,2041.39,3013.10,2969.82,3234.00,349.32,317.42,16.42,0000 0000 0000 0000 000000
2013-10-13 00:02:29,-0.01,1.25,0.00,26.93,28.57,31.08,5.82,29.54,1011.24,2041.34,3013.06,2969.66,3234.00,350.04,318.32,16.43,0000 0000 0000 0000 000000
2013-10-13 00:03:29,-0.01,1.25,0.00,26.96,28.57,31.06,5.63,29.50,1011.24,2041.30,3013.02,2969.49,3234.00,349.44,317.49,16.44,0000 0000 0000 0000 000000
2013-10-13 00:04:30,-0.01,1.25,0.00,26.94,28.57,31.04,6.10,29.75,1011.24,2041.28,3013.00,2969.31,3234.00,350.91,318.85,16.44,0000 0000 0000 0000 000000
2013-10-13 00:05:30,0.09,1.25,0.00,26.95,28.57,31.05,5.80,29.54,1011.24,2041.48,3013.00,2969.32,3234.00,349.71,317.76,16.45,0000 0000 0000 0000 000000
2013-10-13 00:06:30,0.14,1.25,0.00,26.95,28.56,31.09,5.67,29.21,1011.24,2041.59,3013.00,2969.36,3234.00,350.04,318.05,16.45,0000 0000 0000 0000 000000
2013-10-13 00:07:31,0.04,1.25,0.00,26.97,28.55,30.99,5.58,29.42,1011.24,2041.61,3013.00,2969.43,3234.00,349.07,317.15,16.46,0000 0000 0000 0000 000000
2013-10-13 00:08:31,0.04,1.25,0.00,26.95,28.55,31.05,5.74,29.38,1011.24,2041.66,3013.00,2969.44,3234.00,349.78,317.51,16.46,0000 0000 0000 0000 000000
2013-10-13 00:09:31,0.04,1.25,0.00,26.93,28.55,31.06,5.94,29.58,1011.24,2041.66,3013.00,2969.33,3234.00,350.51,318.50,16.47,0000 0000 0000 0000 000000
2013-10-13 00:10:32,0.01,1.25,0.00,26.96,28.55,31.09,5.73,29.33,1011.23,2041.77,3013.00,2969.27,3233.99,349.22,317.30,16.48,0000 0000 0000 0000 000000
2013-10-13 00:11:32,0.08,1.26,0.00,26.97,28.55,31.08,6.02,29.67,1011.24,2041.74,3013.00,2969.19,3233.99,350.81,318.59,16.48,0000 0000 0000 0000 000000
2013-10-13 00:12:32,-0.04,1.25,0.00,26.97,28.55,31.08,5.64,29.46,1011.24,2041.61,3013.00,2969.16,3233.99,350.04,318.22,16.49,0000 0000 0000 0000 000000
2013-10-13 00:13:32,-0.04,1.25,0.00,26.98,28.55,31.08,5.71,29.33,1011.24,2041.65,3012.99,2969.08,3233.97,349.11,317.37,16.49,0000 0000 0000 0000 000000
2013-10-13 00:14:32,0.03,1.25,0.00,26.97,28.55,31.08,5.75,29.25,1011.24,2041.72,3012.98,2969.07,3233.95,349.65,317.77,16.50,0000 0000 0000 0000 000000
2013-10-13 00:15:33,0.09,1.26,0.00,26.97,28.55,31.09,5.97,29.54,1011.24,2041.80,3012.95,2969.04,3233.97,350.38,318.44,16.51,0000 0000 0000 0000 000000
2013-10-13 00:16:33,0.08,1.26,0.00,26.95,28.55,31.06,5.89,29.54,1011.24,2041.80,3012.97,2969.01,3233.96,350.48,318.11,16.51,0000 0000 0000 0000 000000
2013-10-13 00:17:33,-0.03,1.26,0.00,26.93,28.55,31.04,5.92,29.54,1011.24,2041.70,3012.91,2969.01,3233.90,350.47,318.80,16.52,0000 0000 0000 0000 000000
2013-10-13 00:18:34,-0.03,1.26,0.00,26.95,28.55,31.07,5.71,29.38,1011.24,2041.68,3012.80,2969.01,3233.84,349.31,317.61,16.52,0000 0000 0000 0000 000000
2013-10-13 00:19:34,0.00,1.26,0.00,26.95,28.55,31.12,5.98,29.63,1011.24,2041.63,3012.59,2969.00,3233.65,350.33,318.67,16.53,0000 0000 0000 0000 000000
2013-10-13 00:20:34,0.04,1.26,0.00,26.95,28.55,31.14,5.80,29.92,1011.24,2041.69,3012.51,2969.00,3233.63,350.13,318.02,16.54,0000 0000 0000 0000 000000
2013-10-13 00:21:34,0.03,1.26,0.00,26.96,28.55,31.05,5.70,29.50,1011.24,2041.69,3012.41,2969.00,3233.51,349.83,317.85,16.54,0000 0000 0000 0000 000000
2013-10-13 00:22:35,0.02,1.26,0.00,26.94,28.55,31.05,6.07,29.71,1011.24,2041.56,3012.22,2969.00,3233.27,350.24,317.81,16.55,0000 0000 0000 0000 000000
2013-10-13 00:23:35,-0.05,1.26,0.00,26.94,28.55,31.16,5.73,29.42,1011.24,2041.42,3012.10,2969.00,3233.12,348.49,316.64,16.55,0000 0000 0000 0000 000000
2013-10-13 00:24:35,-0.05,1.26,0.00,26.94,28.55,31.17,5.65,29.58,1011.24,2041.49,3012.04,2969.00,3233.05,349.09,316.92,16.56,0000 0000 0000 0000 000000
2013-10-13 00:25:36,0.10,1.26,0.00,26.93,28.55,31.15,5.94,29.79,1011.23,2041.67,3012.01,2969.00,3233.04,350.83,318.79,16.56,0000 0000 0000 0000 000000
2013-10-13 00:26:36,0.13,1.26,0.00,26.93,28.55,31.14,5.85,29.54,1011.23,2041.60,3012.02,2969.00,3233.01,350.12,317.90,16.57,0000 0000 0000 0000 000000
2013-10-13 00:27:36,-0.09,1.26,0.00,26.93,28.55,31.15,5.83,29.42,1011.19,2041.42,3012.00,2969.00,3233.00,350.47,318.47,16.58,0000 0000 0000 0000 000000
2013-10-13 00:28:36,-0.13,1.26,0.00,26.95,28.55,31.17,5.99,29.71,1011.16,2041.36,3012.00,2969.00,3233.00,350.26,318.22,16.58,0000 0000 0000 0000 000000
2013-10-13 00:29:37,-0.06,1.25,0.00,26.94,28.55,31.17,5.98,29.71,1011.14,2041.38,3012.00,2969.00,3233.00,350.56,318.51,16.59,0000 0000 0000 0000 000000
2013-10-13 00:30:37,0.05,1.26,0.00,26.95,28.55,31.17,5.76,29.33,1011.11,2041.47,3012.00,2968.99,3233.00,349.81,317.80,16.59,0000 0000 0000 0000 000000
2013-10-13 00:31:37,0.08,1.26,0.00,26.95,28.55,31.14,5.75,29.58,1011.05,2041.54,3012.00,2968.99,3233.00,349.43,317.20,16.60,0000 0000 0000 0000 000000
2013-10-13 00:32:38,0.06,1.26,0.00,26.96,28.55,31.12,5.81,29.42,1011.11,2041.48,3012.00,2968.98,3233.00,349.51,317.51,16.61,0000 0000 0000 0000 000000
2013-10-13 00:33:38,-0.06,1.26,0.00,26.95,28.55,31.17,5.93,29.54,1011.07,2041.51,3012.00,2968.99,3233.00,350.52,318.55,16.61,0000 0000 0000 0000 000000
2013-10-13 00:34:38,-0.02,1.26,0.00,26.95,28.55,31.15,5.65,29.38,1011.11,2041.42,3011.99,2968.97,3233.00,349.65,317.45,16.62,0000 0000 0000 0000 000000
2013-10-13 00:35:38,-0.03,1.26,0.00,26.95,28.55,31.16,6.08,29.67,1010.95,2041.42,3011.99,2968.98,3233.00,351.08,319.00,16.62,0000 0000 0000 0000 000000
2013-10-13 00:36:39,-0.05,1.26,0.00,26.94,28.55,31.21,5.97,29.63,1010.91,2041.24,3011.98,2968.94,3232.99,350.00,317.58,16.63,0000 0000 0000 0000 000000
2013-10-13 00:37:39,-0.07,1.25,0.00,26.95,28.55,31.20,5.87,29.67,1010.90,2041.34,3011.93,2968.78,3232.98,349.84,317.77,16.64,0000 0000 0000 0000 000000
2013-10-13 00:38:39,0.10,1.26,0.00,26.96,28.55,31.21,5.63,29.71,1010.91,2041.35,3011.86,2968.67,3232.97,349.51,317.46,16.64,0000 0000 0000 0000 000000
2013-10-13 00:39:40,0.07,1.26,0.00,26.95,28.55,31.20,6.00,29.75,1010.84,2041.39,3011.76,2968.60,3232.99,350.10,317.97,16.65,0000 0000 0000 0000 000000
2013-10-13 00:40:40,-0.00,1.26,0.00,26.94,28.55,31.18,6.00,29.63,1010.85,2041.44,3011.54,2968.50,3232.98,349.61,317.54,16.65,0000 0000 0000 0000 000000
2013-10-13 00:41:40,0.18,1.26,0.00,26.93,28.55,31.20,5.82,30.00,1010.88,2041.43,3011.30,2968.31,3232.95,348.63,316.67,16.66,0000 0000 0000 0000 000000
2013-10-13 00:42:40,0.01,1.26,0.00,26.94,28.55,31.17,5.86,29.75,1010.87,2041.24,3011.13,2968.16,3232.77,350.61,318.45,16.66,0000 0000 0000 0000 000000
2013-10-13 00:43:41,-0.03,1.26,0.00,26.93,28.55,31.18,5.86,29.83,1010.89,2041.27,3011.06,2968.11,3232.71,349.77,317.71,16.67,0000 0000 0000 0000 000000
2013-10-13 00:44:41,0.07,1.26,0.00,26.94,28.55,31.19,5.77,29.63,1010.94,2041.35,3011.04,2968.10,3232.66,350.22,318.13,16.68,0000 0000 0000 0000 000000
2013-10-13 00:45:41,0.06,1.26,0.00,26.92,28.55,31.19,5.78,29.67,1010.99,2041.41,3011.02,2968.09,3232.67,350.05,317.83,16.68,0000 0000 0000 0000 000000
2013-10-13 00:46:41,0.05,1.26,0.00,26.93,28.55,31.20,5.90,29.50,1010.92,2041.57,3011.05,2968.13,3232.81,350.49,318.38,16.69,0000 0000 0000 0000 000000
2013-10-13 00:47:42,0.13,1.26,0.00,26.91,28.55,31.21,5.98,29.46,1010.94,2041.73,3011.07,2968.14,3232.85,350.94,318.81,16.69,0000 0000 0000 0000 000000
2013-10-13 00:48:42,0.10,1.26,0.00,26.89,28.56,31.25,5.86,29.67,1011.05,2041.77,3011.04,2968.10,3232.74,350.16,317.59,16.70,0000 0000 0000 0000 000000
2013-10-13 00:49:42,0.02,1.26,0.00,26.90,28.56,31.16,5.96,29.63,1011.12,2041.73,3011.03,2968.07,3232.49,350.91,318.48,16.71,0000 0000 0000 0000 000000
2013-10-13 00:50:43,0.02,1.26,0.00,26.92,28.56,31.22,5.80,29.71,1011.18,2041.68,3011.01,2968.05,3232.23,350.04,318.28,16.71,0000 0000 0000 0000 000000
2013-10-13 00:51:43,-0.01,1.26,0.00,26.91,28.57,31.22,5.81,29.75,1011.10,2041.53,3011.01,2968.02,3232.12,349.33,317.40,16.72,0000 0000 0000 0000 000000
2013-10-13 00:52:43,-0.13,1.26,0.00,26.92,28.57,31.18,5.84,29.63,1011.13,2041.51,3011.00,2968.02,3232.07,350.27,318.26,16.72,0000 0000 0000 0000 000000
2013-10-13 00:53:43,0.08,1.26,0.00,26.92,28.57,31.26,5.84,29.58,1011.16,2041.67,3011.00,2968.02,3232.08,350.14,317.78,16.73,0000 0000 0000 0000 000000
2013-10-13 00:54:44,0.08,1.26,0.00,26.94,28.57,31.25,5.58,29.54,1011.20,2041.72,3011.00,2968.04,3232.06,348.81,317.23,16.73,0000 0000 0000 0000 000000
2013-10-13 00:55:44,0.05,1.26,0.00,26.93,28.57,31.16,6.02,29.67,1011.20,2041.73,3011.00,2968.01,3232.03,351.00,319.20,16.74,0000 0000 0000 0000 000000
2013-10-13 00:56:44,0.01,1.26,0.00,26.93,28.57,31.25,5.89,29.50,1011.16,2041.58,3011.00,2968.00,3232.01,350.42,318.39,16.75,0000 0000 0000 0000 000000
2013-10-13 00:57:44,-0.12,1.26,0.00,26.92,28.57,31.22,5.88,29.46,1011.19,2041.46,3010.99,2968.00,3232.00,349.85,317.89,16.75,0000 0000 0000 0000 000000
2013-10-13 00:58:45,-0.11,1.26,0.00,26.90,28.57,31.26,5.96,29.42,1011.18,2041.39,3010.98,2968.00,3232.00,349.96,318.02,16.76,0000 0000 0000 0000 000000
2013-10-13 00:59:45,-0.04,1.26,0.00,26.91,28.57,31.28,6.01,29.50,1011.20,2041.41,3010.98,2968.00,3232.00,350.74,318.71,16.76,0000 0000 0000 0000 000000
2013-10-13 01:00:45,0.01,1.26,0.00,26.91,28.57,31.29,5.76,29.54,1011.17,2041.44,3010.96,2968.00,3232.00,350.13,318.16,16.77,0000 0000 0000 0000 000000
2013-10-13 01:01:45,0.08,1.26,0.00,26.90,28.57,31.22,6.00,29.63,1011.17,2041.38,3010.93,2968.00,3232.00,350.87,318.83,16.78,0000 0000 0000 0000 000000
2013-10-13 01:02:46,-0.08,1.26,0.00,26.89,28.57,31.24,5.72,29.58,1011.18,2041.40,3010.90,2968.00,3232.00,349.69,317.74,16.78,0000 0000 0000 0000 000000
2013-10-13 01:03:46,0.01,1.26,0.00,26.92,28.57,31.21,5.83,29.67,1011.18,2041.36,3010.82,2968.00,3232.00,350.50,318.32,16.79,0000 0000 0000 0000 000000
2013-10-13 01:04:46,0.01,1.26,0.00,26.90,28.57,31.25,5.95,29.58,1011.19,2041.30,3010.63,2968.00,3232.00,350.30,318.31,16.79,0000 0000 0000 0000 000000
2013-10-13 01:05:46,-0.02,1.26,0.00,26.89,28.57,31.24,6.03,29.46,1011.23,2041.27,3010.44,2967.99,3231.99,350.56,318.58,16.80,0000 0000 0000 0000 000000
2013-10-13 01:06:47,-0.01,1.26,0.00,26.90,28.57,31.20,5.80,29.58,1011.24,2041.26,3010.30,2967.97,3231.99,350.47,318.55,16.81,0000 0000 0000 0000 000000
2013-10-13 01:07:47,0.03,1.26,0.00,26.89,28.57,31.23,5.73,29.38,1011.24,2041.31,3010.20,2967.97,3231.98,348.55,316.94,16.81,0000 0000 0000 0000 000000
2013-10-13 01:08:47,0.06,1.26,0.00,26.87,28.57,31.21,5.88,29.46,1011.24,2041.36,3010.18,2967.95,3231.96,350.36,318.34,16.82,0000 0000 0000 0000 000000
2013-10-13 01:09:47,0.03,1.26,0.00,26.87,28.57,31.25,5.71,29.38,1011.24,2041.39,3010.11,2967.97,3231.97,349.70,317.82,16.82,0000 0000 0000 0000 000000
2013-10-13 01:10:48,0.01,1.26,0.00,26.87,28.57,31.19,6.00,29.42,1011.24,2041.46,3010.14,2967.99,3231.96,349.90,318.47,16.83,0000 0000 0000 0000 000000
2013-10-13 01:11:48,0.08,1.26,0.00,26.88,28.57,31.22,5.75,29.58,1011.24,2041.46,3010.10,2967.96,3231.97,348.91,316.83,16.83,0000 0000 0000 0000 000000
2013-10-13 01:12:48,-0.02,1.26,0.00,26.87,28.57,31.27,5.94,29.54,1011.24,2041.47,3010.06,2967.90,3231.88,349.78,317.68,16.84,0000 0000 0000 0000 000000
2013-10-13 01:13:49,0.08,1.26,0.00,26.86,28.57,31.24,5.79,29.50,1011.24,2041.35,3010.02,2967.84,3231.61,350.78,318.58,16.85,0000 0000 0000 0000 000000
2013-10-13 01:14:49,-0.05,1.26,0.00,26.86,28.57,31.28,5.63,29.21,1011.24,2041.29,3010.02,2967.75,3231.41,349.58,318.07,16.85,0000 0000 0000 0000 000000
2013-10-13 01:15:49,-0.01,1.26,0.00,26.85,28.57,31.27,5.75,29.25,1011.24,2041.24,3010.00,2967.57,3231.24,349.36,317.50,16.86,0000 0000 0000 0000 000000
2013-10-13 01:16:49,0.01,1.26,0.00,26.86,28.57,31.23,5.77,29.46,1011.24,2041.16,3010.00,2967.42,3231.14,349.88,318.00,16.86,0000 0000 0000 0000 000000
2013-10-13 01:17:50,-0.02,1.26,0.00,26.84,28.57,31.30,5.89,29.38,1011.24,2041.13,3010.00,2967.24,3231.10,350.87,318.92,16.87,0000 0000 0000 0000 000000
2013-10-13 01:18:50,0.04,1.26,0.00,26.84,28.57,31.17,5.76,29.38,1011.24,2041.13,3010.00,2967.17,3231.07,348.95,317.18,16.88,0000 0000 0000 0000 000000
2013-10-13 01:19:50,0.02,1.26,0.00,26.83,28.57,31.25,5.80,29.46,1011.26,2041.29,3010.00,2967.19,3231.07,350.54,318.63,16.88,0000 0000 0000 0000 000000
2013-10-13 01:20:50,0.16,1.26,0.00,26.83,28.57,31.24,5.80,29.21,1011.25,2041.24,3009.97,2967.12,3231.04,349.80,317.95,16.89,0000 0000 0000 0000 000000
2013-10-13 01:21:51,-0.07,1.26,0.00,26.83,28.57,31.30,5.88,29.42,1011.27,2041.13,3009.96,2967.05,3231.01,349.87,318.40,16.89,0000 0000 0000 0000 000000
2013-10-13 01:22:51,-0.06,1.26,0.00,26.83,28.57,31.28,5.79,29.17,1011.27,2041.09,3009.94,2967.03,3231.00,350.05,317.75,16.90,0000 0000 0000 0000 000000
2013-10-13 01:23:51,-0.02,1.26,0.00,26.85,28.57,31.21,5.82,29.13,1011.28,2041.16,3009.92,2967.01,3231.00,349.59,317.76,16.90,0000 0000 0000 0000 000000
2013-10-13 01:24:51,0.09,1.26,0.00,26.84,28.57,31.22,5.65,29.17,1011.28,2041.20,3009.83,2967.00,3231.00,349.08,317.30,16.91,0000 0000 0000 0000 000000
2013-10-13 01:25:52,0.05,1.26,0.00,26.82,28.57,31.23,5.81,29.29,1011.28,2041.21,3009.66,2967.00,3231.00,349.83,317.88,16.92,0000 0000 0000 0000 000000
2013-10-13 01:26:52,0.00,1.26,0.00,26.83,28.57,31.22,5.72,29.29,1011.28,2041.18,3009.41,2967.00,3231.00,348.74,317.01,16.92,0000 0000 0000 0000 000000
2013-10-13 01:27:52,0.01,1.26,0.00,26.83,28.57,31.19,6.10,29.46,1011.29,2041.12,3009.22,2967.00,3230.98,350.54,318.48,16.93,0000 0000 0000 0000 000000
2013-10-13 01:28:52,-0.03,1.26,0.00,26.82,28.57,31.24,5.92,29.25,1011.29,2041.11,3009.18,2967.00,3230.98,349.86,318.01,16.93,0000 0000 0000 0000 000000
2013-10-13 01:29:53,0.00,1.26,0.00,26.81,28.57,31.23,5.86,29.25,1011.28,2041.08,3009.12,2967.00,3230.99,349.90,317.56,16.94,0000 0000 0000 0000 000000
2013-10-13 01:30:53,-0.02,1.26,0.00,26.80,28.57,31.20,5.75,29.21,1011.26,2041.10,3009.16,2967.00,3230.99,349.28,317.42,16.95,0000 0000 0000 0000 000000
2013-10-13 01:31:53,0.05,1.26,0.00,26.79,28.57,31.21,5.84,29.46,1011.28,2041.10,3009.11,2967.00,3230.96,350.40,318.28,16.95,0000 0000 0000 0000 000000
2013-10-13 01:32:53,-0.01,1.26,0.00,26.81,28.57,31.26,5.92,29.50,1011.26,2041.09,3009.05,2967.00,3230.96,350.24,318.59,16.96,0000 0000 0000 0000 000000
2013-10-13 01:33:54,0.00,1.26,0.00,26.81,28.57,31.22,5.55,29.38,1011.27,2041.12,3009.01,2967.00,3230.98,348.89,317.18,16.96,0000 0000 0000 0000 000000
2013-10-13 01:34:54,0.03,1.26,0.00,26.81,28.57,31.24,5.93,29.92,1011.27,2041.12,3009.00,2967.00,3230.97,349.97,318.27,16.97,0000 0000 0000 0000 000000
2013-10-13 01:35:54,0.00,1.26,0.00,26.76,28.57,31.25,5.57,29.29,1011.27,2041.11,3009.00,2966.99,3230.90,348.61,316.95,16.97,0000 0000 0000 0000 000000
2013-10-13 01:36:54,0.00,1.26,0.00,26.75,28.57,31.19,6.09,29.50,1011.30,2041.11,3009.00,2966.97,3230.86,350.37,318.57,16.98,0000 0000 0000 0000 000000
2013-10-13 01:37:54,0.02,1.26,0.00,26.77,28.57,31.21,5.88,29.58,1011.32,2041.21,3009.00,2966.98,3230.83,350.74,318.83,16.99,0000 0000 0000 0000 000000
2013-10-13 01:38:54,0.10,1.26,0.00,26.77,28.57,31.20,5.77,29.21,1011.39,2041.23,3009.00,2966.97,3230.82,349.61,317.89,16.99,0000 0000 0000 0000 000000
2013-10-13 01:39:55,0.00,1.26,0.00,26.78,28.57,31.16,5.75,29.13,1011.47,2041.18,3009.00,2966.98,3230.75,349.57,317.88,17.00,0000 0000 0000 0000 000000
2013-10-13 01:40:55,-0.04,1.26,0.00,26.75,28.57,31.14,5.69,29.21,1011.40,2041.22,3009.00,2966.96,3230.58,349.01,317.37,17.00,0000 0000 0000 0000 000000
2013-10-13 01:41:55,0.09,1.26,0.00,26.76,28.57,31.19,5.71,29.83,1011.42,2041.23,3008.99,2966.95,3230.46,349.63,317.93,17.01,0000 0000 0000 0000 000000
2013-10-13 01:42:55,-0.02,1.26,0.00,26.77,28.57,31.18,5.82,29.75,1011.36,2041.21,3008.99,2966.95,3230.27,350.21,318.43,17.02,0000 0000 0000 0000 000000
2013-10-13 01:43:56,0.04,1.26,0.00,26.78,28.57,31.19,5.89,29.63,1011.32,2041.18,3008.96,2966.87,3230.12,350.03,318.32,17.02,0000 0000 0000 0000 000000
2013-10-13 01:44:56,0.00,1.26,0.00,26.77,28.57,31.22,5.83,29.46,1011.30,2041.13,3008.96,2966.77,3230.05,350.61,318.24,17.03,0000 0000 0000 0000 000000
2013-10-13 01:45:56,0.01,1.26,0.00,26.76,28.57,31.21,5.72,29.42,1011.34,2041.10,3008.96,2966.73,3230.03,350.71,318.52,17.03,0000 0000 0000 0000 000000
2013-10-13 01:46:56,-0.03,1.26,0.00,26.76,28.57,31.23,6.09,29.54,1011.32,2041.15,3008.98,2966.77,3230.03,350.89,319.05,17.04,0000 0000 0000 0000 000000
2013-10-13 01:47:57,0.04,1.26,0.00,26.76,28.57,31.18,5.93,29.50,1011.34,2041.19,3008.99,2966.80,3230.05,350.27,318.49,17.05,0000 0000 0000 0000 000000
2013-10-13 01:48:57,0.00,1.26,0.00,26.77,28.57,31.17,5.69,29.29,1011.39,2041.27,3008.99,2966.82,3230.07,349.32,317.92,17.05,0000 0000 0000 0000 000000
2013-10-13 01:49:57,0.04,1.26,0.00,26.76,28.57,31.21,5.69,29.25,1011.43,2041.22,3008.94,2966.67,3230.04,348.82,317.19,17.06,0000 0000 0000 0000 000000
2013-10-13 01:50:57,0.00,1.26,0.00,26.77,28.57,31.17,6.03,29.63,1011.52,2041.16,3008.91,2966.55,3230.03,349.76,318.28,17.06,0000 0000 0000 0000 000000
2013-10-13 01:51:57,-0.01,1.26,0.00,26.75,28.56,31.22,5.67,29.42,1011.60,2041.20,3008.76,2966.40,3230.02,349.42,317.81,17.07,0000 0000 0000 0000 000000
2013-10-13 01:52:57,0.15,1.26,0.00,26.75,28.56,31.17,5.94,29.63,1011.68,2041.19,3008.66,2966.28,3230.01,350.85,319.13,17.07,0000 0000 0000 0000 000000
2013-10-13 01:53:58,0.01,1.26,0.00,26.75,28.56,31.21,5.69,29.42,1011.72,2041.13,3008.44,2966.15,3230.00,348.75,317.24,17.08,0000 0000 0000 0000 000000
2013-10-13 01:54:58,0.00,1.26,0.00,26.72,28.55,31.23,5.97,29.50,1011.73,2041.14,3008.23,2966.09,3230.00,350.59,319.04,17.09,0000 0000 0000 0000 000000
2013-10-13 01:55:58,0.03,1.26,0.00,26.71,28.55,31.21,5.93,29.42,1011.73,2041.13,3008.10,2966.07,3230.00,349.92,318.45,17.09,0000 0000 0000 0000 000000
2013-10-13 01:56:58,0.04,1.26,0.00,26.71,28.55,31.19,6.08,29.46,1011.73,2041.18,3008.06,2966.08,3230.00,350.28,318.67,17.10,0000 0000 0000 0000 000000
2013-10-13 01:57:59,0.03,1.26,0.00,26.71,28.55,31.13,6.07,29.46,1011.73,2041.39,3008.07,2966.10,3230.00,351.40,319.88,17.10,0000 0000 0000 0000 000000
2013-10-13 01:58:59,0.16,1.27,0.00,26.74,28.55,31.19,5.74,29.50,1011.73,2041.43,3008.05,2966.06,3230.00,349.19,317.76,17.11,0000 0000 0000 0000 000000
2013-10-13 01:59:59,0.07,1.27,0.00,26.72,28.55,31.11,5.72,29.46,1011.73,2041.38,3008.05,2966.07,3229.98,350.54,319.32,17.12,0000 0000 0000 0000 000000
2013-10-13 02:00:59,-0.06,1.27,0.00,26.72,28.55,31.14,5.88,29.42,1011.73,2041.33,3008.03,2966.06,3229.99,349.67,318.38,17.12,0000 0000 0000 0000 000000
2013-10-13 02:01:59,-0.06,1.27,0.00,26.72,28.55,31.14,5.73,29.38,1011.74,2041.28,3008.01,2966.04,3229.99,350.40,318.78,17.13,0000 0000 0000 0000 000000
2013-10-13 02:03:00,-0.01,1.27,0.00,26.70,28.55,31.17,6.01,29.63,1011.74,2041.37,3008.00,2966.02,3229.99,350.95,319.29,17.13,0000 0000 0000 0000 000000
2013-10-13 02:04:00,0.07,1.27,0.00,26.71,28.55,31.18,5.79,29.38,1011.74,2041.39,3008.00,2966.02,3229.99,350.15,318.56,17.14,0000 0000 0000 0000 000000
2013-10-13 02:05:00,-0.00,1.27,0.00,26.72,28.55,31.16,5.96,29.29,1011.74,2041.25,3008.00,2966.00,3229.96,349.72,318.15,17.14,0000 0000 0000 0000 000000
2013-10-13 02:06:00,-0.10,1.27,0.00,26.74,28.55,31.20,5.89,29.33,1011.75,2041.19,3008.00,2966.00,3229.94,350.52,318.87,17.15,0000 0000 0000 0000 000000
2013-10-13 02:07:01,-0.02,1.27,0.00,26.74,28.55,31.19,5.98,29.46,1011.74,2041.19,3008.00,2966.00,3229.89,350.54,318.60,17.16,0000 0000 0000 0000 000000
2013-10-13 02:08:01,0.01,1.27,0.00,26.73,28.55,31.13,5.64,29.21,1011.74,2041.25,3008.00,2966.00,3229.88,349.49,317.71,17.16,0000 0000 0000 0000 000000
2013-10-13 02:09:01,0.04,1.27,0.00,26.72,28.55,31.17,5.75,29.33,1011.75,2041.22,3008.00,2966.00,3229.83,350.20,318.34,17.17,0000 0000 0000 0000 000000
2013-10-13 02:10:01,-0.02,1.27,0.00,26.72,28.55,31.18,5.90,29.50,1011.74,2041.17,3007.98,2966.00,3229.63,350.22,318.62,17.17,0000 0000 0000 0000 000000
2013-10-13 02:11:02,0.00,1.27,0.00,26.70,28.55,31.13,6.01,29.42,1011.75,2041.16,3007.97,2966.00,3229.36,350.67,319.05,17.18,0000 0000 0000 0000 000000
2013-10-13 02:12:02,0.01,1.27,0.00,26.72,28.55,31.22,5.75,29.21,1011.75,2041.13,3007.98,2966.00,3229.30,349.06,317.56,17.19,0000 0000 0000 0000 000000
2013-10-13 02:13:02,0.00,1.27,0.00,26.73,28.55,31.12,5.83,29.38,1011.75,2041.17,3007.97,2966.00,3229.25,350.53,318.91,17.19,0000 0000 0000 0000 000000
2013-10-13 02:14:02,0.02,1.27,0.00,26.72,28.54,31.17,5.86,29.33,1011.75,2041.25,3007.92,2966.00,3229.17,349.66,317.87,17.20,0000 0000 0000 0000 000000
2013-10-13 02:15:02,0.09,1.27,0.00,26.72,28.54,31.11,5.88,29.46,1011.74,2041.30,3007.79,2966.00,3229.11,350.09,318.84,17.20,0000 0000 0000 0000 000000
2013-10-13 02:16:03,0.08,1.27,0.00,26.69,28.54,31.07,5.71,29.25,1011.73,2041.28,3007.73,2965.99,3229.08,349.32,317.44,17.21,0000 0000 0000 0000 000000
2013-10-13 02:17:03,-0.01,1.27,0.00,26.70,28.53,31.14,5.77,29.42,1011.73,2041.29,3007.62,2965.99,3229.07,349.54,318.17,17.21,0000 0000 0000 0000 000000
2013-10-13 02:18:03,0.03,1.27,0.00,26.71,28.53,31.13,5.85,29.54,1011.74,2041.26,3007.50,2965.98,3229.05,350.46,318.84,17.22,0000 0000 0000 0000 000000
2013-10-13 02:19:03,-0.02,1.27,0.00,26.69,28.53,31.18,5.77,29.58,1011.74,2041.17,3007.43,2965.97,3229.02,350.26,318.53,17.23,0000 0000 0000 0000 000000
2013-10-13 02:20:04,-0.04,1.27,0.00,26.68,28.52,31.13,5.98,29.63,1011.77,2041.20,3007.30,2965.97,3229.00,350.40,319.07,17.23,0000 0000 0000 0000 000000
2013-10-13 02:21:04,0.04,1.27,0.00,26.68,28.52,31.13,6.05,29.71,1011.76,2041.23,3007.22,2965.98,3229.01,351.15,319.67,17.24,0000 0000 0000 0000 000000
2013-10-13 02:22:04,0.02,1.27,0.00,26.68,28.52,31.10,5.76,29.71,1011.84,2041.29,3007.23,2965.98,3229.01,349.91,317.93,17.24,0000 0000 0000 0000 000000
2013-10-13 02:23:04,0.05,1.27,0.00,26.67,28.52,31.13,5.71,29.46,1011.91,2041.41,3007.24,2965.98,3229.03,349.77,318.30,17.25,0000 0000 0000 0000 000000
2013-10-13 02:24:04,0.10,1.27,0.00,26.68,28.52,31.12,5.71,29.46,1012.11,2041.47,3007.12,2965.94,3229.01,349.24,317.88,17.26,0000 0000 0000 0000 000000
2013-10-13 02:25:05,0.10,1.27,0.00,26.68,28.52,31.13,5.91,29.58,1012.15,2041.36,3007.05,2965.85,3229.00,350.62,319.15,17.26,0000 0000 0000 0000 000000
2013-10-13 02:26:05,-0.07,1.27,0.00,26.67,28.52,31.15,5.68,29.54,1012.12,2041.30,3007.02,2965.86,3229.00,350.78,319.29,17.27,0000 0000 0000 0000 000000
2013-10-13 02:27:05,-0.03,1.27,0.00,26.68,28.52,31.08,5.97,29.58,1012.13,2041.37,3007.01,2965.80,3229.00,350.68,319.20,17.27,0000 0000 0000 0000 000000
2013-10-13 02:28:05,0.04,1.27,0.00,26.66,28.52,31.10,5.75,29.58,1012.19,2041.40,3007.00,2965.75,3229.00,349.37,318.04,17.28,0000 0000 0000 0000 000000
2013-10-13 02:29:06,0.03,1.27,0.00,26.65,28.52,31.14,5.67,29.42,1012.16,2041.28,3007.00,2965.60,3229.00,349.32,318.00,17.29,0000 0000 0000 0000 000000
2013-10-13 02:30:06,-0.05,1.27,0.00,26.67,28.52,31.15,6.04,29.71,1012.14,2041.33,3007.00,2965.40,3229.00,350.53,318.94,17.29,0000 0000 0000 0000 000000
2013-10-13 02:31:06,0.11,1.27,0.00,26.67,28.52,31.14,5.93,29.50,1012.13,2041.43,3007.00,2965.36,3229.00,349.82,318.23,17.30,0000 0000 0000 0000 000000
2013-10-13 02:32:06,0.07,1.27,0.00,26.68,28.52,31.13,5.88,29.67,1012.08,2041.42,3007.00,2965.31,3228.98,349.88,318.45,17.30,0000 0000 0000 0000 000000
2013-10-13 02:33:07,0.00,1.27,0.00,26.68,28.51,31.06,6.05,29.67,1012.04,2041.42,3007.00,2965.29,3228.97,350.12,318.96,17.31,0000 0000 0000 0000 000000
2013-10-13 02:34:07,-0.00,1.27,0.00,26.65,28.50,31.17,5.80,29.42,1012.00,2041.42,3007.00,2965.20,3228.97,349.49,318.10,17.31,0000 0000 0000 0000 000000
2013-10-13 02:35:07,0.01,1.27,0.00,26.66,28.50,31.14,5.73,29.42,1012.09,2041.49,3007.00,2965.15,3228.97,349.22,317.87,17.32,0000 0000 0000 0000 000000
2013-10-13 02:36:07,0.08,1.27,0.00,26.66,28.50,31.13,5.86,29.63,1012.16,2041.55,3007.00,2965.09,3228.97,350.32,319.10,17.33,0000 0000 0000 0000 000000